[[{"header":{"parameterUnit":"m.s-1","parameterCategory":1,"la1":30.2991,"la2":30.254,"lo1":-89.0895,"lo2":-89.0444,"dy":0.0017,"dx":0.0017,"nx":28,"ny":28,"refTime":"2024-08-20T03:00:00:Z","depth":0,"parameterNumber":2,"parameterNumberName":"U-component_of_WINDS"},"data":[0,0,0,0,0,0,0,0,0,0,0,0,0,0,0,0,0,0,0,0,0,0,0,0,0,0,0,0,0,0,0,0,0,0,0,0,0,0,0,0,0,0,0,0,0,0,0,0,0,0,0,0,0,0,0,0,0,0,0.6282,0.628,0,0.6176,0.6174,0.6173,0.6139,0.6139,0.614,0.614,0.6031,0.6028,0.6024,0,0,0,0,0,0,0,0,0,0,0,0,0,0.6454,0.6451,0.6282,0.628,0.6279,0.6176,0.6174,0.6173,0.6139,0.6139,0.614,0.614,0.6032,0.6028,0.6024,0,0,0,0,0,0,0,0,0,0,0,0,0,0.6367,0.645,0.6282,0.625,0.6246,0.6176,0.6174,0.6172,0.6139,0.6139,0.614,0.6141,0.6033,0.6028,0.6023,0.5978,0,0,0.6008,0.6006,0,0,0,0,0,0,0,0,0.6372,0.636,0.6256,0.6252,0.6247,0.6171,0.6195,0.6107,0.6138,0.6179,0.614,0.6141,0.6077,0.6068,0.6047,0.5973,0.5968,0.6008,0.6005,0.6002,0.6001,0,0,0,0,0,0,0,0.6378,0.6365,0.624,0.6254,0.6249,0.624,0.6228,0.6178,0.6125,0.6176,0.6173,0.6161,0.6075,0.6052,0.6044,0.5967,0.6008,0.6003,0.6,0.5998,0.585,0.5849,0,0,0,0,0,0,0.6389,0.637,0.6243,0.6236,0.6312,0.6236,0.6223,0.6195,0.6126,0.6116,0.616,0.616,0.606,0.605,0.604,0.5981,0.6002,0.5998,0.5995,0.5851,0.585,0.5849,0,0,0,0,0,0,0.6393,0.6378,0.6247,0.6302,0.6285,0.6233,0.6201,0.6192,0.6169,0.6114,0.6105,0.6147,0.606,0.6047,0.5994,0.5977,0.5996,0.5991,0.5852,0.5851,0.5849,0.5865,0,0,0,0,0,0,0.6398,0.638,0.6362,0.6302,0.6282,0.6203,0.62,0.619,0.6161,0.6159,0.6099,0.609,0.606,0.6001,0.5989,0.5971,0.5987,0.5853,0.5851,0.585,0.5866,0.5864,0.5863,0,0,0,0,0,0.6404,0.6371,0.6362,0.6346,0.6259,0.6202,0.6191,0.6157,0.616,0.6141,0.6106,0.6091,0.5982,0.5996,0.5982,0.5962,0.5854,0.5852,0.585,0.5866,0.5864,0.5863,0,0,0,0,0,0,0.643,0.6362,0.6351,0.6297,0.6256,0.6196,0.6172,0.6157,0.6113,0.6113,0.6073,0.606,0.6009,0.5981,0.5998,0.5914,0.5917,0.5912,0.5935,0.5932,0.5931,0.5938,0.5983,0,0,0,0,0,0.6429,0.6389,0.6332,0.629,0.627,0.6225,0.6199,0.6177,0.6132,0.6114,0.6074,0.6031,0.5987,0.5958,0.5915,0.5862,0.5848,0.5841,0.584,0.5839,0.5835,0.5804,0.58,0.5842,0.5842,0.5842,0,0,0.6427,0.6386,0.6362,0.6294,0.6259,0.6217,0.621,0.6166,0.6135,0.6107,0.6054,0.6024,0.5973,0.5919,0.5894,0.5894,0.582,0.5837,0.5837,0.5832,0.5801,0.5797,0.5794,0.5841,0.5841,0.5841,0,0,0.6402,0.6367,0.6328,0.6293,0.6241,0.6211,0.6202,0.6145,0.6123,0.607,0.6048,0.601,0.5935,0.5899,0.5871,0.5834,0.5818,0.5821,0.5813,0.5783,0.578,0.5777,0.5762,0.5757,0.5817,0.5817,0.5817,0,0.6406,0.6343,0.6309,0.6267,0.6237,0.6211,0.617,0.6138,0.6074,0.6054,0.6055,0.5959,0.5924,0.5861,0.5852,0.5831,0.5818,0.5826,0.5783,0.578,0.5776,0.5761,0.5756,0.5817,0.5817,0.5817,0.5817,0,0.635,0.6306,0.6281,0.6219,0.6187,0.6146,0.6106,0.6077,0.6058,0.6029,0.5974,0.593,0.5876,0.5861,0.5842,0.5795,0.5796,0.5791,0.5793,0.5773,0.5758,0.5753,0.5818,0.5818,0.5818,0.5817,0,0,0.6336,0.6257,0.6248,0.622,0.616,0.6126,0.6084,0.6031,0.6007,0.5964,0.5927,0.5864,0.5859,0.5827,0.5804,0.5779,0.575,0.5776,0.5774,0.5771,0.5694,0.5697,0.5691,0.574,0.5739,0.5738,0.5697,0,0.6302,0.6224,0.6193,0.613,0.6089,0.6064,0.6027,0.5986,0.5958,0.5919,0.5887,0.5843,0.584,0.582,0.5794,0.5759,0.5733,0.5762,0.5704,0.5702,0.5715,0.5683,0.5686,0.565,0.5692,0.5691,0.569,0,0.6251,0.6208,0.6141,0.6086,0.6067,0.6035,0.5984,0.5947,0.5901,0.5882,0.5847,0.5826,0.578,0.5786,0.5722,0.5742,0.5717,0.5696,0.5694,0.5686,0.5693,0.5672,0.5637,0.5631,0.5681,0.5682,0.5682,0,0.6245,0.6171,0.612,0.6097,0.6032,0.601,0.5982,0.5936,0.5907,0.5863,0.5843,0.5795,0.5768,0.5731,0.5697,0.5705,0.5635,0.5639,0.5617,0.5618,0.5602,0.5603,0.5561,0.5589,0.5589,0.559,0.559,0,0.6209,0.6169,0.6117,0.6086,0.604,0.6005,0.596,0.593,0.589,0.5852,0.5829,0.5794,0.5752,0.5712,0.5686,0.5636,0.5625,0.5607,0.56,0.5608,0.561,0.5589,0.559,0.5588,0.5588,0.5589,0.5589,0,0.6194,0.6158,0.6101,0.6045,0.603,0.5998,0.595,0.5918,0.589,0.5842,0.5829,0.5783,0.5735,0.5698,0.5636,0.5618,0.5564,0.5558,0.558,0.5576,0.5555,0.5556,0.5496,0.5485,0.5524,0.5523,0.5523,0,0.6172,0.614,0.6081,0.6054,0.6026,0.5983,0.5953,0.5918,0.5888,0.5832,0.5808,0.5758,0.5716,0.5639,0.56,0.5552,0.5543,0.5525,0.5536,0.5544,0.554,0.5542,0.5538,0.5523,0.5523,0.5523,0.5523,0,0.6136,0.612,0.6078,0.6029,0.5994,0.5954,0.5913,0.5893,0.585,0.5817,0.5767,0.5735,0.5671,0.5621,0.5569,0.554,0.5524,0.552,0.5512,0.5518,0.5531,0.5522,0.5574,0.5521,0.5521,0.5521,0.5521,0.5522,0.6116,0.6086,0.6039,0.5992,0.5958,0.5921,0.5889,0.5856,0.5814,0.5759,0.5741,0.5689,0.5644,0.5572,0.5543,0.5501,0.5501,0.549,0.5487,0.5484,0.5483,0.554,0.5492,0.5492,0.5492,0.5492,0.5492,0,0.6077,0.6046,0.6004,0.5947,0.5911,0.59,0.5855,0.5824,0.5779,0.5738,0.5697,0.564,0.5592,0.5549,0.5499,0.5474,0.5466,0.5462,0.5462,0.5456,0.5488,0.5499,0.547,0.547,0.547,0.547,0.547,0.547,0.6052,0.6001,0.5979,0.5911,0.588,0.5829,0.5804,0.5769,0.5736,0.5673,0.5633,0.5606,0.5564,0.5511,0.5466,0.5454,0.5436,0.5434,0.5421,0.5451,0.5454,0.5456,0.5466,0.5431,0.5431,0.5392,0.5392,0.5391]},{"header":{"parameterUnit":"m.s-1","parameterCategory":1,"la1":30.2991,"la2":30.254,"lo1":-89.0895,"lo2":-89.0444,"dy":0.0017,"dx":0.0017,"nx":28,"ny":28,"refTime":"2024-08-20T03:00:00:Z","depth":0,"parameterNumber":3,"parameterNumberName":"V-component_of_WINDS"},"data":[0,0,0,0,0,0,0,0,0,0,0,0,0,0,0,0,0,0,0,0,0,0,0,0,0,0,0,0,0,0,0,0,0,0,0,0,0,0,0,0,0,0,0,0,0,0,0,0,0,0,0,0,0,0,0,0,0,0,-3.4578,-3.4578,0,-3.4614,-3.4614,-3.4614,-3.4533,-3.4531,-3.4528,-3.4526,-3.456,-3.4563,-3.4567,0,0,0,0,0,0,0,0,0,0,0,0,0,-3.4437,-3.444,-3.4578,-3.4578,-3.4579,-3.4613,-3.4614,-3.4614,-3.4534,-3.4531,-3.4528,-3.4525,-3.4559,-3.4563,-3.4567,0,0,0,0,0,0,0,0,0,0,0,0,0,-3.4488,-3.4441,-3.4578,-3.4543,-3.454,-3.4613,-3.4614,-3.4615,-3.4535,-3.4531,-3.4527,-3.4523,-3.4558,-3.4563,-3.4568,-3.4676,0,0,-3.4583,-3.4585,0,0,0,0,0,0,0,0,-3.4485,-3.4493,-3.4547,-3.4545,-3.4542,-3.4565,-3.4577,-3.4635,-3.4536,-3.4537,-3.4526,-3.4521,-3.4565,-3.4569,-3.4584,-3.4677,-3.4679,-3.4583,-3.4586,-3.4588,-3.459,0,0,0,0,0,0,0,-3.4482,-3.4491,-3.4592,-3.4548,-3.4545,-3.4524,-3.4527,-3.4588,-3.4572,-3.4536,-3.453,-3.4536,-3.4563,-3.458,-3.4584,-3.4679,-3.4583,-3.4588,-3.4591,-3.4593,-3.4864,-3.4868,0,0,0,0,0,0,-3.4483,-3.4489,-3.459,-3.4593,-3.4504,-3.453,-3.4533,-3.4562,-3.4571,-3.4569,-3.4539,-3.4532,-3.4573,-3.4579,-3.4585,-3.4713,-3.4588,-3.4593,-3.4596,-3.486,-3.4865,-3.4869,0,0,0,0,0,0,-3.448,-3.4493,-3.4589,-3.4539,-3.455,-3.4537,-3.4569,-3.4564,-3.4581,-3.4573,-3.457,-3.4559,-3.457,-3.4578,-3.4654,-3.4713,-3.4595,-3.46,-3.4855,-3.4861,-3.4867,-3.497,0,0,0,0,0,0,-3.4477,-3.4492,-3.4534,-3.4541,-3.4553,-3.4659,-3.4573,-3.4568,-3.459,-3.4581,-3.4591,-3.4589,-3.4568,-3.4647,-3.4659,-3.4718,-3.4604,-3.4849,-3.4857,-3.4865,-3.4961,-3.4979,-3.4994,0,0,0,0,0,-3.4472,-3.4561,-3.4537,-3.4549,-3.4605,-3.4662,-3.4669,-3.4643,-3.4595,-3.4637,-3.4632,-3.4589,-3.4705,-3.4656,-3.4668,-3.473,-3.4845,-3.4855,-3.4864,-3.4954,-3.4975,-3.4993,0,0,0,0,0,0,-3.456,-3.4561,-3.4534,-3.4628,-3.4646,-3.4648,-3.47,-3.4666,-3.4697,-3.4687,-3.4653,-3.4656,-3.4739,-3.4741,-3.4687,-3.4835,-3.4767,-3.4779,-3.483,-3.4851,-3.4867,-3.4865,-3.4608,0,0,0,0,0,-3.4591,-3.4638,-3.4636,-3.4719,-3.4729,-3.4713,-3.4737,-3.4716,-3.4732,-3.4739,-3.4739,-3.4756,-3.4796,-3.4824,-3.486,-3.4961,-3.4962,-3.5009,-3.5025,-3.5039,-3.505,-3.5104,-3.5125,-3.49,-3.49,-3.49,0,0,-3.4654,-3.466,-3.4692,-3.4737,-3.4748,-3.4797,-3.472,-3.4775,-3.4811,-3.4747,-3.4819,-3.482,-3.4837,-3.4926,-3.4965,-3.4931,-3.5113,-3.5051,-3.5062,-3.5066,-3.5116,-3.5138,-3.5157,-3.4907,-3.4906,-3.4905,0,0,-3.4794,-3.4804,-3.4874,-3.4888,-3.4906,-3.4895,-3.4912,-3.492,-3.4918,-3.4991,-3.4944,-3.4985,-3.5055,-3.5069,-3.5086,-3.5232,-3.5194,-3.5245,-3.5331,-3.5384,-3.5402,-3.5418,-3.547,-3.549,-3.5256,-3.5257,-3.5257,0,-3.487,-3.4943,-3.4915,-3.4974,-3.4995,-3.494,-3.5011,-3.5025,-3.5054,-3.5069,-3.503,-3.5118,-3.5125,-3.5217,-3.5253,-3.5267,-3.5286,-3.5244,-3.5402,-3.5417,-3.5431,-3.5481,-3.5501,-3.5263,-3.5262,-3.5261,-3.5261,0,-3.5036,-3.5088,-3.5142,-3.5173,-3.52,-3.5265,-3.5245,-3.5276,-3.5252,-3.5245,-3.5319,-3.5326,-3.5364,-3.5384,-3.536,-3.5473,-3.5451,-3.5408,-3.5339,-3.5459,-3.5506,-3.5525,-3.5271,-3.5269,-3.5267,-3.5266,0,0,-3.5233,-3.5248,-3.5268,-3.5282,-3.5299,-3.5337,-3.5399,-3.5437,-3.5464,-3.5486,-3.5537,-3.5598,-3.5558,-3.5577,-3.5554,-3.5601,-3.5718,-3.5552,-3.5552,-3.5583,-3.5842,-3.5875,-3.5898,-3.5692,-3.5696,-3.5699,-3.5841,0,-3.5373,-3.5481,-3.5457,-3.5563,-3.561,-3.5559,-3.5613,-3.5628,-3.5624,-3.5662,-3.5656,-3.57,-3.5644,-3.5655,-3.5699,-3.5694,-3.5769,-3.5683,-3.5739,-3.5742,-3.5738,-3.5922,-3.5956,-3.609,-3.5859,-3.5862,-3.5864,0,-3.555,-3.558,-3.5691,-3.5701,-3.572,-3.5769,-3.5801,-3.5839,-3.5856,-3.5849,-3.5871,-3.5839,-3.59,-3.5831,-3.5914,-3.5856,-3.5878,-3.5879,-3.5883,-3.5888,-3.5811,-3.5932,-3.6132,-3.6153,-3.5892,-3.589,-3.5888,0,-3.5683,-3.5751,-3.5827,-3.584,-3.5853,-3.5889,-3.5895,-3.5908,-3.5933,-3.5961,-3.5976,-3.6011,-3.603,-3.6057,-3.6036,-3.5987,-3.6123,-3.6051,-3.6119,-3.612,-3.615,-3.6149,-3.6358,-3.6163,-3.6163,-3.6163,-3.6162,0,-3.5842,-3.5912,-3.5887,-3.5934,-3.6011,-3.5982,-3.6059,-3.6059,-3.6072,-3.6117,-3.6074,-3.6117,-3.6087,-3.6127,-3.6111,-3.6183,-3.6192,-3.6188,-3.6183,-3.6192,-3.6193,-3.6206,-3.6196,-3.6168,-3.6167,-3.6166,-3.6165,0,-3.6004,-3.599,-3.6069,-3.6075,-3.6078,-3.6135,-3.614,-3.6183,-3.6175,-3.6233,-3.6245,-3.6232,-3.6278,-3.6259,-3.6307,-3.6296,-3.6389,-3.6371,-3.6384,-3.6379,-3.6448,-3.6442,-3.6673,-3.6702,-3.6489,-3.6491,-3.6493,0,-3.6107,-3.616,-3.6172,-3.62,-3.621,-3.6255,-3.628,-3.6254,-3.6282,-3.6305,-3.6345,-3.6387,-3.642,-3.6495,-3.6489,-3.6526,-3.6509,-3.6588,-3.6514,-3.6522,-3.6511,-3.6509,-3.6514,-3.6603,-3.6605,-3.6607,-3.6609,0,-3.629,-3.6281,-3.6319,-3.6355,-3.6387,-3.6413,-3.6436,-3.6461,-3.6436,-3.6469,-3.6516,-3.6541,-3.6591,-3.6633,-3.6666,-3.6672,-3.6637,-3.6632,-3.6649,-3.666,-3.6665,-3.6664,-3.6424,-3.6627,-3.6625,-3.6624,-3.6623,-3.6622,-3.6426,-3.6471,-3.6487,-3.6531,-3.6546,-3.6569,-3.661,-3.6607,-3.6646,-3.6685,-3.6667,-3.6722,-3.6737,-3.6777,-3.6788,-3.683,-3.6799,-3.6824,-3.6831,-3.6838,-3.6847,-3.6659,-3.6835,-3.6835,-3.6834,-3.6834,-3.6834,0,-3.6608,-3.6616,-3.6657,-3.6691,-3.6726,-3.669,-3.6714,-3.6745,-3.6794,-3.6812,-3.6845,-3.6899,-3.694,-3.6938,-3.6976,-3.7009,-3.6994,-3.702,-3.7018,-3.702,-3.6872,-3.6854,-3.7032,-3.7032,-3.7032,-3.7032,-3.7032,-3.7032,-3.6707,-3.6782,-3.6774,-3.6856,-3.6863,-3.6917,-3.6933,-3.6954,-3.6968,-3.7031,-3.7065,-3.7064,-3.7074,-3.7112,-3.7148,-3.7146,-3.7163,-3.7195,-3.7188,-3.705,-3.703,-3.7011,-3.6994,-3.7199,-3.7199,-3.7332,-3.7333,-3.7334]}]]